When you browse on this site, cookies collect data to enhance your experience and personalize the content and advertising you see.
Visit our Privacy Policy to learn more. By continuing to use the site, you agree to this use of cookies and data.
  • In Österreich
  • Länderverzeichnis
  • Für 7 Tage
  • Wassertemperatur
  • Wetterkarte
  • News
  • Widgets
  • user-avatar
    Anmelden

    Stündliche Wetter Morales

    Heute, 17 September, Dienstag

    Zeit Temperatur Niederschläge Wind Luftdruck Luftfeuchtigkeit
    00:00 +16°C° 0.3 mm 1 m/S 623 mmHg 93%
    01:00 +16°C° 0.3 mm 1 m/S 623 mmHg 93%
    02:00 +16°C° 0.2 mm 1 m/S 623 mmHg 93%
    03:00 +16°C° 0.2 mm 1 m/S 623 mmHg 92%
    04:00 +16°C° 0.2 mm 1 m/S 622 mmHg 92%
    05:00 +15°C° 0 mm 0 m/S 623 mmHg 91%
    06:00 +16°C° 0 mm 0 m/S 624 mmHg 89%
    07:00 +16°C° 0 mm 0 m/S 624 mmHg 88%
    08:00 +21°C° 0 mm 1 m/S 625 mmHg 78%
    09:00 +23°C° 0 mm 1 m/S 626 mmHg 68%
    10:00 +26°C° 0 mm 1 m/S 627 mmHg 58%
    11:00 +25°C° 0.8 mm 1 m/S 627 mmHg 64%
    12:00 +25°C° 0.8 mm 1 m/S 626 mmHg 70%
    13:00 +24°C° 0.8 mm 1 m/S 625 mmHg 75%
    14:00 +23°C° 1.7 mm 1 m/S 624 mmHg 79%
    15:00 +23°C° 1.7 mm 1 m/S 623 mmHg 83%
    16:00 +22°C° 1.7 mm 1 m/S 623 mmHg 86%
    17:00 +21°C° 1 mm 1 m/S 623 mmHg 89%
    18:00 +20°C° 1 mm 1 m/S 623 mmHg 92%
    19:00 +19°C° 1 mm 1 m/S 623 mmHg 95%
    20:00 +18°C° 0.7 mm 1 m/S 623 mmHg 95%
    21:00 +18°C° 0.7 mm 1 m/S 623 mmHg 95%
    22:00 +18°C° 0.7 mm 1 m/S 624 mmHg 95%
    23:00 +16°C° 0.3 mm 1 m/S 623 mmHg 95%

    Morgen, 18 September, Mittwoch

    Zeit Temperatur Niederschläge Wind Luftdruck Luftfeuchtigkeit
    00:00 +16°C° 0.3 mm 1 m/S 623 mmHg 94%
    01:00 +15°C° 0.3 mm 0 m/S 623 mmHg 94%
    02:00 +16°C° 0.3 mm 1 m/S 623 mmHg 94%
    03:00 +16°C° 0.3 mm 1 m/S 622 mmHg 93%
    04:00 +16°C° 0.3 mm 1 m/S 622 mmHg 93%
    05:00 +16°C° 0.1 mm 1 m/S 623 mmHg 92%
    06:00 +15°C° 0.1 mm 0 m/S 623 mmHg 91%
    07:00 +16°C° 0.1 mm 0 m/S 624 mmHg 90%
    08:00 +20°C° 0.1 mm 1 m/S 625 mmHg 82%
    09:00 +22°C° 0.1 mm 1 m/S 625 mmHg 74%
    10:00 +24°C° 0.1 mm 1 m/S 626 mmHg 65%
    11:00 +24°C° 0.7 mm 1 m/S 625 mmHg 71%
    12:00 +23°C° 0.7 mm 1 m/S 625 mmHg 76%
    13:00 +23°C° 0.7 mm 1 m/S 624 mmHg 81%
    14:00 +22°C° 1.5 mm 1 m/S 623 mmHg 84%
    15:00 +22°C° 1.5 mm 1 m/S 623 mmHg 86%
    16:00 +21°C° 1.5 mm 1 m/S 622 mmHg 89%
    17:00 +20°C° 0.8 mm 1 m/S 622 mmHg 91%
    18:00 +19°C° 0.8 mm 1 m/S 622 mmHg 94%
    19:00 +16°C° 0.8 mm 0 m/S 622 mmHg 97%
    20:00 +16°C° 0.2 mm 0 m/S 623 mmHg 97%
    21:00 +16°C° 0.2 mm 0 m/S 623 mmHg 97%
    22:00 +16°C° 0.2 mm 0 m/S 623 mmHg 97%
    23:00 +16°C° 0.2 mm 0 m/S 623 mmHg 97%

    übermorgen, 19 September, Donnerstag

    Zeit Temperatur Niederschläge Wind Luftdruck Luftfeuchtigkeit
    00:00 +16°C° 0.2 mm 0 m/S 623 mmHg 97%
    01:00 +16°C° 0.2 mm 0 m/S 623 mmHg 97%
    02:00 +16°C° 0.2 mm 0 m/S 622 mmHg 97%
    03:00 +16°C° 0.2 mm 0 m/S 622 mmHg 97%
    04:00 +16°C° 0.2 mm 0 m/S 622 mmHg 97%
    05:00 +16°C° 0.2 mm 0 m/S 623 mmHg 96%
    06:00 +16°C° 0.2 mm 0 m/S 623 mmHg 95%
    07:00 +16°C° 0.2 mm 0 m/S 623 mmHg 95%
    08:00 +18°C° 0.3 mm 0 m/S 624 mmHg 88%
    09:00 +20°C° 0.3 mm 0 m/S 625 mmHg 81%
    10:00 +22°C° 0.3 mm 0 m/S 625 mmHg 75%
    11:00 +23°C° 1.9 mm 1 m/S 625 mmHg 78%
    12:00 +23°C° 1.9 mm 1 m/S 624 mmHg 82%
    13:00 +22°C° 1.9 mm 1 m/S 623 mmHg 86%
    14:00 +21°C° 1.7 mm 1 m/S 623 mmHg 88%
    15:00 +21°C° 1.7 mm 1 m/S 622 mmHg 91%
    16:00 +18°C° 1.7 mm 0 m/S 622 mmHg 94%
    17:00 +17°C° 2.2 mm 0 m/S 622 mmHg 96%
    18:00 +17°C° 2.2 mm 0 m/S 622 mmHg 97%
    19:00 +16°C° 2.2 mm 0 m/S 622 mmHg 98%
    20:00 +16°C° 0.7 mm 0 m/S 623 mmHg 98%
    21:00 +16°C° 0.7 mm 0 m/S 623 mmHg 98%
    22:00 +16°C° 0.7 mm 0 m/S 623 mmHg 98%
    23:00 +16°C° 0.2 mm 0 m/S 623 mmHg 97%

    20 September, Freitag

    Zeit Temperatur Niederschläge Wind Luftdruck Luftfeuchtigkeit
    00:00 +16°C° 0.2 mm 0 m/S 623 mmHg 97%
    01:00 +16°C° 0.2 mm 0 m/S 623 mmHg 97%
    02:00 +16°C° 0.7 mm 0 m/S 623 mmHg 97%
    03:00 +15°C° 0.7 mm 0 m/S 622 mmHg 97%
    04:00 +15°C° 0.7 mm 0 m/S 622 mmHg 97%
    05:00 +15°C° 1.2 mm 0 m/S 623 mmHg 97%
    06:00 +16°C° 1.2 mm 0 m/S 623 mmHg 97%
    07:00 +16°C° 1.2 mm 0 m/S 624 mmHg 97%
    08:00 +17°C° 0.4 mm 0 m/S 625 mmHg 94%
    09:00 +20°C° 0.4 mm 1 m/S 625 mmHg 90%
    10:00 +21°C° 0.4 mm 1 m/S 626 mmHg 87%
    11:00 +20°C° 0.6 mm 1 m/S 625 mmHg 88%
    12:00 +20°C° 0.6 mm 1 m/S 625 mmHg 90%
    13:00 +20°C° 0.6 mm 1 m/S 624 mmHg 92%
    14:00 +20°C° 0.6 mm 1 m/S 624 mmHg 91%
    15:00 +20°C° 0.6 mm 1 m/S 624 mmHg 90%
    16:00 +20°C° 0.6 mm 1 m/S 623 mmHg 89%
    17:00 +19°C° 0.1 mm 1 m/S 623 mmHg 91%
    18:00 +16°C° 0.1 mm 0 m/S 623 mmHg 94%
    19:00 +15°C° 0.1 mm 0 m/S 623 mmHg 96%
    20:00 +15°C° 0 mm 0 m/S 623 mmHg 96%
    21:00 +14°C° 0 mm 0 m/S 623 mmHg 95%
    22:00 +14°C° 0 mm 0 m/S 623 mmHg 94%
    23:00 +14°C° 0 mm 0 m/S 623 mmHg 92%

    21 September, Samstag

    Zeit Temperatur Niederschläge Wind Luftdruck Luftfeuchtigkeit
    00:00 +14°C° 0 mm 0 m/S 623 mmHg 91%
    01:00 +14°C° 0 mm 0 m/S 623 mmHg 89%
    02:00 +14°C° 0 mm 0 m/S 623 mmHg 89%
    03:00 +14°C° 0 mm 0 m/S 623 mmHg 89%
    04:00 +14°C° 0 mm 0 m/S 623 mmHg 89%
    05:00 +15°C° 0 mm 0 m/S 623 mmHg 88%
    06:00 +15°C° 0 mm 0 m/S 624 mmHg 87%
    07:00 +15°C° 0 mm 0 m/S 624 mmHg 86%
    08:00 +18°C° 0 mm 0 m/S 625 mmHg 76%
    09:00 +23°C° 0 mm 1 m/S 626 mmHg 66%
    10:00 +25°C° 0 mm 1 m/S 628 mmHg 56%
    11:00 +26°C° 0.3 mm 1 m/S 627 mmHg 55%
    12:00 +26°C° 0.3 mm 1 m/S 627 mmHg 55%
    13:00 +27°C° 0.3 mm 2 m/S 626 mmHg 54%
    14:00 +26°C° 0.7 mm 2 m/S 625 mmHg 62%
    15:00 +24°C° 0.7 mm 2 m/S 624 mmHg 70%
    16:00 +23°C° 0.7 mm 1 m/S 623 mmHg 77%
    17:00 +21°C° 0.7 mm 1 m/S 623 mmHg 83%
    18:00 +20°C° 0.7 mm 1 m/S 623 mmHg 88%
    19:00 +18°C° 0.7 mm 1 m/S 623 mmHg 94%
    20:00 +18°C° 0.1 mm 1 m/S 623 mmHg 94%
    21:00 +16°C° 0.1 mm 1 m/S 623 mmHg 94%
    22:00 +16°C° 0.1 mm 1 m/S 624 mmHg 93%
    23:00 +16°C° 0.1 mm 1 m/S 624 mmHg 93%

    22 September, Sonntag

    Zeit Temperatur Niederschläge Wind Luftdruck Luftfeuchtigkeit
    00:00 +15°C° 0.1 mm 0 m/S 623 mmHg 94%
    01:00 +15°C° 0.1 mm 0 m/S 623 mmHg 94%
    02:00 +15°C° 0 mm 0 m/S 623 mmHg 94%
    03:00 +15°C° 0 mm 0 m/S 623 mmHg 94%
    04:00 +15°C° 0 mm 0 m/S 623 mmHg 94%
    05:00 +15°C° 0 mm 0 m/S 623 mmHg 93%
    06:00 +15°C° 0 mm 0 m/S 624 mmHg 91%
    07:00 +16°C° 0 mm 0 m/S 624 mmHg 90%
    08:00 +18°C° 0 mm 0 m/S 625 mmHg 81%
    09:00 +22°C° 0 mm 1 m/S 626 mmHg 72%
    10:00 +25°C° 0 mm 1 m/S 627 mmHg 64%
    11:00 +25°C° 0.7 mm 1 m/S 626 mmHg 65%
    12:00 +25°C° 0.7 mm 1 m/S 626 mmHg 66%
    13:00 +25°C° 0.7 mm 1 m/S 625 mmHg 66%
    14:00 +24°C° 1.4 mm 1 m/S 624 mmHg 72%
    15:00 +23°C° 1.4 mm 1 m/S 624 mmHg 78%
    16:00 +22°C° 1.4 mm 1 m/S 623 mmHg 83%
    17:00 +21°C° 1.3 mm 1 m/S 623 mmHg 87%
    18:00 +20°C° 1.3 mm 1 m/S 623 mmHg 90%
    19:00 +18°C° 1.3 mm 1 m/S 623 mmHg 93%
    20:00 +18°C° 0.4 mm 1 m/S 623 mmHg 93%
    21:00 +18°C° 0.4 mm 1 m/S 624 mmHg 93%
    22:00 +16°C° 0.4 mm 1 m/S 624 mmHg 92%
    23:00 +16°C° 0 mm 1 m/S 624 mmHg 93%
    Mehr zeigen